TimeCDT,TemperatureF,Dew PointF,Humidity,Sea Level PressureIn,VisibilityMPH,Wind Direction,Wind SpeedMPH,Gust SpeedMPH,PrecipitationIn,Events,Conditions,WindDirDegrees,DateUTC
12:15 AM,47.3,43.0,85,29.98,10.0,West,9.2,-,N/A,,Clear,280,2013-03-31 05:15:00
12:35 AM,47.5,43.3,86,29.97,10.0,West,10.4,-,N/A,,Clear,280,2013-03-31 05:35:00
12:55 AM,46.8,43.0,87,29.97,10.0,West,9.2,-,N/A,,Clear,270,2013-03-31 05:55:00
1:15 AM,45.5,42.8,90,29.97,10.0,West,6.9,-,N/A,,Clear,280,2013-03-31 06:15:00
1:35 AM,45.7,42.8,90,29.98,10.0,West,6.9,-,N/A,,Clear,270,2013-03-31 06:35:00
1:55 AM,44.1,41.9,92,29.98,10.0,Calm,Calm,-,N/A,,Clear,0,2013-03-31 06:55:00
2:15 AM,43.7,42.1,94,29.98,10.0,Calm,Calm,-,N/A,,Clear,0,2013-03-31 07:15:00
2:35 AM,43.2,41.9,95,29.98,10.0,Calm,Calm,-,N/A,,Clear,0,2013-03-31 07:35:00
2:55 AM,41.5,41.2,99,29.97,10.0,Calm,Calm,-,N/A,,Clear,0,2013-03-31 07:55:00
3:15 AM,41.5,41.0,98,29.97,10.0,Calm,Calm,-,N/A,,Clear,0,2013-03-31 08:15:00
3:35 AM,39.9,39.4,98,29.96,7.0,NW,3.5,-,N/A,,Clear,310,2013-03-31 08:35:00
3:55 AM,37.9,37.8,99,29.96,7.0,Calm,Calm,-,N/A,,Clear,0,2013-03-31 08:55:00
4:15 AM,37.8,37.8,100,29.96,7.0,Calm,Calm,-,N/A,,Clear,0,2013-03-31 09:15:00
4:35 AM,36.5,36.3,99,29.96,7.0,WNW,3.5,-,N/A,,Clear,300,2013-03-31 09:35:00
4:55 AM,35.8,35.8,100,29.96,7.0,NW,4.6,-,N/A,,Clear,310,2013-03-31 09:55:00
5:15 AM,36.0,36.0,100,29.96,7.0,WNW,6.9,-,N/A,,Clear,290,2013-03-31 10:15:00
5:35 AM,35.4,35.4,100,29.97,10.0,West,8.1,-,N/A,,Clear,280,2013-03-31 10:35:00
5:55 AM,35.6,35.6,100,29.97,10.0,WNW,9.2,-,N/A,,Clear,290,2013-03-31 10:55:00
6:15 AM,35.8,35.8,100,29.97,10.0,WNW,5.8,-,N/A,,Clear,290,2013-03-31 11:15:00
6:35 AM,35.6,35.6,100,29.98,7.0,NW,5.8,-,N/A,,Clear,310,2013-03-31 11:35:00
6:55 AM,34.7,34.7,100,29.99,7.0,NW,5.8,-,N/A,,Clear,310,2013-03-31 11:55:00
7:15 AM,34.7,34.7,100,29.99,5.0,WNW,6.9,-,N/A,,Clear,290,2013-03-31 12:15:00
7:35 AM,36.5,36.5,100,29.99,5.0,West,6.9,-,N/A,,Mostly Cloudy,280,2013-03-31 12:35:00
7:55 AM,37.8,37.8,100,29.99,5.0,West,6.9,-,N/A,,Mostly Cloudy,280,2013-03-31 12:55:00
8:15 AM,39.2,38.5,97,30.00,5.0,WNW,6.9,-,N/A,,Scattered Clouds,290,2013-03-31 13:15:00
8:35 AM,40.3,39.4,97,30.01,5.0,WNW,9.2,-,N/A,,Clear,290,2013-03-31 13:35:00
8:55 AM,41.7,39.7,93,30.01,7.0,West,8.1,-,N/A,,Clear,280,2013-03-31 13:55:00
9:15 AM,43.3,40.1,88,30.01,7.0,WNW,9.2,-,N/A,,Clear,300,2013-03-31 14:15:00
9:35 AM,45.0,39.4,81,30.01,10.0,NW,12.7,-,N/A,,Clear,320,2013-03-31 14:35:00
9:55 AM,46.6,38.3,73,30.00,10.0,NW,15.0,20.7,N/A,,Clear,320,2013-03-31 14:55:00
10:15 AM,48.6,38.1,67,30.01,10.0,NW,19.6,-,N/A,,Clear,320,2013-03-31 15:15:00
10:35 AM,49.1,36.3,61,30.01,10.0,NW,19.6,-,N/A,,Clear,310,2013-03-31 15:35:00
10:55 AM,49.6,34.7,56,30.01,10.0,NW,19.6,24.2,N/A,,Clear,310,2013-03-31 15:55:00
11:15 AM,50.7,32.7,50,30.02,10.0,NNW,15.0,-,N/A,,Clear,330,2013-03-31 16:15:00
11:35 AM,51.8,31.3,46,30.02,10.0,NW,17.3,26.5,N/A,,Clear,320,2013-03-31 16:35:00
11:55 AM,51.8,30.4,44,30.02,10.0,NNW,15.0,24.2,N/A,,Clear,330,2013-03-31 16:55:00
12:15 PM,52.5,27.7,38,30.02,10.0,NW,18.4,26.5,N/A,,Clear,320,2013-03-31 17:15:00
12:35 PM,53.6,28.2,38,30.02,10.0,NW,19.6,31.1,N/A,,Clear,320,2013-03-31 17:35:00
12:55 PM,54.5,28.2,36,30.02,10.0,NW,19.6,26.5,N/A,,Clear,320,2013-03-31 17:55:00
1:15 PM,54.7,25.7,33,30.02,10.0,NW,21.9,27.6,N/A,,Clear,310,2013-03-31 18:15:00
1:35 PM,55.4,26.1,32,30.01,10.0,NW,19.6,27.6,N/A,,Clear,320,2013-03-31 18:35:00
1:55 PM,55.6,26.6,33,30.01,10.0,NNW,17.3,25.3,N/A,,Clear,330,2013-03-31 18:55:00
2:15 PM,55.4,24.6,30,30.00,10.0,NW,13.8,25.3,N/A,,Clear,320,2013-03-31 19:15:00
2:35 PM,55.6,25.0,31,30.00,10.0,NW,12.7,21.9,N/A,,Clear,320,2013-03-31 19:35:00
2:55 PM,55.9,25.2,31,30.00,10.0,NNW,17.3,23.0,N/A,,Clear,330,2013-03-31 19:55:00
3:15 PM,56.5,25.7,31,29.99,10.0,North,10.4,23.0,N/A,,Scattered Clouds,350,2013-03-31 20:15:00
3:35 PM,55.9,25.5,31,29.99,10.0,NNW,12.7,18.4,N/A,,Scattered Clouds,340,2013-03-31 20:35:00
3:55 PM,56.1,25.5,31,29.99,10.0,NNW,12.7,19.6,N/A,,Clear,330,2013-03-31 20:55:00
4:15 PM,56.3,25.5,31,29.98,10.0,North,9.2,20.7,N/A,,Clear,360,2013-03-31 21:15:00
4:35 PM,56.5,25.7,31,29.97,10.0,NNW,10.4,18.4,N/A,,Clear,330,2013-03-31 21:35:00
4:55 PM,55.6,25.3,31,29.97,10.0,North,10.4,16.1,N/A,,Clear,10,2013-03-31 21:55:00
5:15 PM,55.2,25.2,31,29.97,10.0,North,9.2,-,N/A,,Clear,360,2013-03-31 22:15:00
5:35 PM,54.5,24.6,31,29.98,10.0,NNE,9.2,-,N/A,,Clear,20,2013-03-31 22:35:00
5:55 PM,52.0,22.6,32,29.97,10.0,North,10.4,16.1,N/A,,Mostly Cloudy,10,2013-03-31 22:55:00
6:15 PM,51.6,24.1,34,29.97,10.0,North,11.5,17.3,N/A,,Mostly Cloudy,360,2013-03-31 23:15:00
6:35 PM,51.1,25.2,36,29.97,10.0,North,10.4,16.1,N/A,,Overcast,360,2013-03-31 23:35:00
7:15 PM,48.9,25.7,40,30.00,10.0,North,10.4,-,N/A,,Overcast,360,2013-04-01 00:15:00
7:35 PM,48.2,26.8,43,30.01,10.0,North,8.1,-,N/A,,Overcast,350,2013-04-01 00:35:00
8:15 PM,44.8,28.9,54,30.04,10.0,North,16.1,24.2,N/A,,Overcast,10,2013-04-01 01:15:00
8:35 PM,43.0,31.5,64,30.06,10.0,North,15.0,23.0,N/A,,Overcast,360,2013-04-01 01:35:00
8:55 PM,40.8,32.9,73,30.08,10.0,North,11.5,20.7,N/A,Rain,Rain,360,2013-04-01 01:55:00
9:15 PM,37.4,34.7,90,30.10,5.0,North,12.7,20.7,N/A,Rain,Light Rain,360,2013-04-01 02:15:00
9:35 PM,36.0,35.2,97,30.12,7.0,North,10.4,16.1,0.01,Rain,Rain,350,2013-04-01 02:35:00
9:55 PM,34.2,34.2,100,30.13,2.5,North,6.9,-,0.02,Snow,Light Snow,350,2013-04-01 02:55:00
10:15 PM,33.8,33.8,100,30.14,2.0,North,4.6,-,0.02,Snow,Light Snow,350,2013-04-01 03:15:00
10:35 PM,33.6,33.6,100,30.15,2.5,North,8.1,-,0.03,Snow,Light Snow,350,2013-04-01 03:35:00
10:55 PM,32.9,32.9,100,30.16,1.8,North,11.5,19.6,0.04,Snow,Light Snow,350,2013-04-01 03:55:00
11:15 PM,32.2,32.2,100,30.16,2.0,North,11.5,19.6,N/A,Snow,Light Snow,350,2013-04-01 04:15:00
11:35 PM,32.0,32.0,100,30.16,5.0,North,6.9,-,0.01,Snow,Light Snow,360,2013-04-01 04:35:00
11:55 PM,32.0,31.1,96,30.18,10.0,North,10.4,16.1,0.01,,Overcast,350,2013-04-01 04:55:00